www.pogodaiklimat.ru

Погода и климат >> Архив погоды >> Норвегия >> Рюгге


ПОГОДА в Рюгге

  • Прогноз погоды в Рюгге
  • Монитор погоды в Рюгге

АРХИВ ПОГОДЫ в Рюгге

Время (UTC), дата Ветер
(напр.,м/с)
 
Видим.   Явления Облачность Т
(С)
Тd
(С)
f
(%)
Тe
(С)
Тes
(С)
Комфортность P
(гПа)
Po
(гПа)
Тmin
(С)
Tmax
(С)
R
(мм)
R24
(мм)
S
(см)
04 12.06 С 5
{9}
40 км слаб. ливневой дождь н/о +10.4 +7.5 82 +7 +7 1023.0 1016.6
05 12.06 С 7
{10}
50 км в посл. час морось н/о +10.2 +7.1 81 +7 +7 1022.6 1016.2
06 12.06 СВ 7
{13}
50 км слаб. ливневой дождь н/о +10.5 +6.5 76 +7 +7 1022.4 1016.0 +10.2 +13.9 31
07 12.06 СВ 5
{10}
50 км н/о +10.7 +6.1 73 +8 +8 1022.9 1016.4
08 12.06 С 6
{9}
50 км н/о +10.6 +5.8 72 +7 +7 1021.9 1015.5
09 12.06 С 7
{11}
45 км н/о +10.7 +5.5 70 +7 +7 1021.1 1014.7
10 12.06 С 6
{12}
45 км в посл. час морось н/о +11.5 +6.4 71 +9 +9 1020.2 1013.8
11 12.06 СВ 5
{11}
50 км н/о +11.9 +5.6 65 +10 +10 1021.3 1014.9
12 12.06 С 4
{12}
50 км н/о +11.7 +5.8 67 +10 +10 1021.0 1014.6
13 12.06 С 5
{7}
50 км н/о +11.5 +6.0 69 +9 +9 1020.6 1014.2
14 12.06 С 5
{7}
50 км н/о +11.3 +6.5 72 +9 +9 1020.5 1014.1
15 12.06 СВ 4
{7}
50 км в посл. час морось н/о +11.2 +6.9 75 +9 +9 1020.1 1013.6
16 12.06 С 4
{8}
50 км слаб. ливневой дождь н/о +11.2 +6.0 70 +9 +9 1019.5 1013.1
17 12.06 СВ 6
{8}
40 км слаб. ливневой дождь н/о +10.3 +6.6 78 +7 +7 1018.8 1012.4 0.2
18 12.06 С 6
{9}
50 км н/о +9.9 +6.3 78 +6 +6 1018.3 1011.8 +9.9 +12.3 0.2
19 12.06 С 5
{9}
50 км н/о +9.9 +6.6 80 +7 +7 1017.8 1011.4
20 12.06 С 5
{8}
50 км н/о +9.7 +7.0 83 +6 +6 1017.3 1010.9
21 12.06 С 5
{8}
50 км н/о +9.6 +7.2 85 +6 +6 1016.5 1010.1
22 12.06 С 5
{8}
28 км слаб. дождь н/о +9.4 +7.4 87 +6 +6 1015.4 1009.0 0.2
23 12.06 С 7
{9}
8000 м слаб. ливневой дождь н/о +9.1 +7.9 92 +5 +5 1014.0 1007.6 2
00 13.06 С 5
{9}
28 км в посл. час дождь н/о +9.2 +8.1 93 +6 +6 1013.0 1006.6 3
01 13.06 СЗ 2
{8}
3900 м слаб. ливневой дождь н/о +9.2 +8.4 95 +7 +7 1013.1 1006.7 0.2
02 13.06 С 5
{7}
7000 м в посл. час морось н/о +9.2 +8.6 96 +6 +6 1011.3 1004.9 2
03 13.06 С 6
{10}
9000 м дождь н/о +9.4 +8.8 96 +6 +6 1009.7 1003.3 5
04 13.06 С 2
{6}
50 км в посл. час дождь н/о +9.7 +8.9 95 +8 +8 1010.5 1004.1 3
05 13.06 С 2
{6}
14 км слаб. ливневой дождь н/о +10.0 +9.4 96 +8 +8 1010.0 1003.6 0.6
06 13.06 С 3
{10}
3100 м в посл. час морось н/о +10.5 +9.9 96 +8 +8 1009.6 1003.2 +9.0 +10.5 14
07 13.06 С 2
{4}
3300 м дымка н/о +11.3 +10.7 96 +10 +10 1009.5 1003.1 0.8
08 13.06 СВ 2
{3}
2400 м дымка н/о +11.9 +11.3 96 +11 +11 1009.8 1003.5 0.5
09 13.06 СВ 2
{4}
3000 м дымка н/о +12.4 +11.8 96 +11 +11 1010.1 1003.8 0.6
10 13.06 СВ 2
{4}
8000 м н/о +13.0 +12.4 96 +12 +12 1010.6 1004.3
11 13.06 В 2
{4}
4900 м дымка н/о +14.4 +13.8 96 +14 +14 1010.9 1004.6 0.2
12 13.06 Ю 4
{5}
16 км н/о +15.9 +14.3 90 +15 +15 1011.8 1005.5 0.2
13 13.06 Ю 4
{7}
23 км н/о +14.1 +12.5 90 +13 +13 1012.7 1006.4 0.1
14 13.06 Ю 4
{8}
16 км н/о +13.2 +11.6 90 +11 +11 1013.2 1006.9
15 13.06 Ю 5
{8}
30 км н/о +15.0 +11.6 80 +14 +14 1013.9 1007.6
16 13.06 Ю 4
{8}
35 км н/о +15.3 +10.1 71 +14 +14 1014.1 1007.8
17 13.06 Ю 4
{6}
40 км н/о +15.5 +9.9 69 +15 +15 1014.4 1008.1
18 13.06 Ю 3
{8}
35 км н/о +15.3 +9.7 69 +15 +15 1015.4 1009.1 +10.5 +16.1 2
19 13.06 Ю 1
{5}
40 км н/о +14.8 +10.0 73 +15 +15 1015.8 1009.5
20 13.06 штиль 0
{2}
45 км н/о +13.2 +10.0 81 +13 +13 1016.0 1009.7
21 13.06 СВ 1
{2}
50 км н/о +12.1 +10.7 91 +12 +12 1016.7 1010.4
22 13.06 В 1
{3}
50 км н/о +12.4 +11.0 91 +12 +12 1017.2 1010.8
23 13.06 СВ 2
{2}
50 км н/о +12.7 +10.8 88 +12 +12 1017.2 1010.8
00 14.06 СВ 2
{5}
50 км н/о +11.6 +10.2 91 +10 +10 1016.8 1010.4
01 14.06 СВ 1
{3}
30 км н/о +10.8 +9.6 92 +10 +10 1017.4 1011.0
02 14.06 С 1
{3}
30 км н/о +10.0 +9.2 95 +9 +9 1017.5 1011.1
03 14.06 СВ 2
{3}
27 км н/о +10.2 +9.3 94 +9 +9 1017.5 1011.1
04 14.06 СВ 2
{3}
40 км н/о +12.0 +9.9 87 +11 +11 1017.7 1011.3
05 14.06 СВ 2
{4}
35 км н/о +14.2 +11.0 81 +14 +14 1017.6 1011.2
06 14.06 В 4
{6}
13 км слаб. дождь н/о +13.1 +11.7 91 +11 +11 1018.2 1011.8 +9.7 +15.5
07 14.06 В 3
{7}
11 км слаб. ливневой дождь 5/0
[]
+13.3 +12.5 95 +12 +16 1018.5 1012.2 2
08 14.06 В 3
{4}
4600 м дождь 8/0
[]
+13.5 +12.9 96 +12 +17 1018.7 1012.3 3
09 14.06 СВ 3
{6}
16 км в посл. час дождь 8/8 1500 м
[]
+14.7 +13.6 93 +14 +16 1018.9 1012.6 0.6
10 14.06 В 3
{5}
22 км 9/9 300 м
[]
+16.2 +13.9 86 +16 +17 1019.2 1012.9
11 14.06 ЮЗ 3
{4}
28 км 10/10 300 м
[]
+16.4 +13.5 83 +16 +16 1019.4 1013.1 0.4
12 14.06 Ю 2
{7}
35 км 9/9 300 м
[]
+17.8 +13.3 75 +18 +20 1019.2 1012.9 6
13 14.06 Ю 5
{7}
24 км 6/0
[]
+18.0 +13.3 74 +18 +22 1019.3 1013.0
14 14.06 Ю 5
{7}
26 км ясно +18.3 +13.0 71 +18 +24 1019.6 1013.3
15 14.06 Ю 4
{7}
30 км ясно +18.0 +12.5 70 +18 +23 1019.3 1013.1
16 14.06 Ю 4
{6}
40 км ясно +17.8 +10.9 64 +18 +21 1019.0 1012.7
17 14.06 Ю 2
{6}
35 км ясно +17.5 +11.3 67 +18 +21 1018.7 1012.5
18 14.06 ЮЗ 2
{7}
45 км ясно +16.3 +10.8 70 +16 +18 1019.0 1012.7 +13.0 +19.3 6
19 14.06 ЮЗ 2
{4}
45 км ясно +15.2 +11.6 79 +15 +15 1019.5 1013.1
20 14.06 Ю 2
{4}
35 км ясно +13.7 +12.1 90 +13 +13 1019.4 1013.1
21 14.06 В 1
{3}
17 км 3/0
[]
+12.8 +11.9 94 +13 +13 1019.8 1013.4
22 14.06 В 1
{2}
25 км 10/0
[]
+12.3 +11.5 95 +12 +12 1020.0 1013.6
23 14.06 В 2
{2}
17 км 5/0
[]
+11.3 +10.7 96 +10 +10 1020.2 1013.8
00 15.06 В 1
{4}
14 км 10/0
[]
+11.5 +10.9 96 +11 +11 1020.1 1013.7
01 15.06 В 1
{2}
13 км ясно +11.5 +10.7 95 +11 +11 1019.8 1013.4
02 15.06 штиль 0
{2}
5000 м туман ясно +10.4 +10.0 97 +10 +10 1019.9 1013.4
03 15.06
{3}
700 м туман ясно +11.0 +10.1 94 1019.9 1013.4
04 15.06 СВ 2
{2}
28 км в посл. час туман ясно +11.9 +10.8 93 +11 +12 1019.7 1013.3
05 15.06 В 1
{2}
30 км ясно +14.9 +12.0 83 +15 +18 1019.6 1013.3
06 15.06 С 3
{3}
35 км н/о +17.0 +11.7 71 +17 +17 1019.3 1013.0 +9.7 +17.0
07 15.06 СВ 2
{4}
40 км ясно +19.3 +11.4 60 +21 +28 комфорт 1019.2 1013.0
08 15.06 СВ 2
{3}
35 км ясно +20.3 +11.5 57 +23 +32 комфорт 1019.1 1012.9 0.4
09 15.06 СВ 2
{5}
35 км ясно +21.7 +12.3 55 +24 +36 комфорт 1018.4 1012.2
10 15.06 СВ 3
{5}
45 км ясно +22.2 +10.7 48 +24 +36 комфорт 1018.5 1012.4
11 15.06 В 4
{5}
35 км ясно +22.8 +11.5 49 +25 +35 комфорт 1017.7 1011.6
12 15.06 СВ 3
{8}
40 км ясно +24.1 +11.8 46 +26 +38 жарко 1017.2 1011.1 0.4
13 15.06 В 3
{6}
35 км ясно +24.5 +11.5 44 +26 +37 жарко 1016.5 1010.4
14 15.06 В 3
{6}
35 км ясно +25.2 +12.8 46 +27 +36 жарко 1015.9 1009.8
15 15.06 В 3
{5}
40 км 1/0
[]
+24.3 +12.9 49 +26 +33 жарко 1015.5 1009.4
16 15.06 ЮВ 4
{5}
45 км 6/0
[]
+23.8 +13.1 51 +26 +28 жарко 1015.0 1008.9
17 15.06 Ю 3
{6}
50 км 6/6 1500 м
[]
+24.0 +13.8 53 +26 +27 жарко 1014.7 1008.6
18 15.06 ЮВ 2
{6}
50 км 6/0
[]
+22.8 +12.1 51 +25 +26 комфорт 1014.4 1008.3 +17.0 +25.4 0.4
19 15.06 В 1
{3}
50 км 6/0
[]
+22.1 +12.4 54 +25 +25 комфорт 1014.3 1008.2
20 15.06 В 2
{2}
50 км 6/0
[]
+20.5 +13.5 64 +23 +23 комфорт 1014.1 1007.9
21 15.06 Ю 3
{3}
50 км 10/0 2000 м
[]
+20.0 +12.3 61 +22 +22 комфорт 1013.9 1007.7
22 15.06 Ю 3
{6}
50 км 10/0 2000 м
[]
+17.5 +12.8 74 +18 +18 1014.3 1008.1
23 15.06 ЮВ 2
{4}
50 км 10/0 2000 м
[]
+17.2 +12.5 74 +18 +18 1014.6 1008.4
00 16.06 СВ 2
{6}
50 км 10/0
[]
+16.1 +13.0 82 +16 +16 1014.0 1007.7
01 16.06 С 2
{4}
50 км 10/0
[]
+16.6 +12.6 77 +17 +17 1012.9 1006.7
02 16.06 В 2
{3}
50 км 10/0
[]
+16.4 +12.8 79 +17 +17 1012.7 1006.5
03 16.06 ЮВ 3
{4}
50 км 10/0
[]
+16.3 +12.5 78 +16 +16 1013.0 1006.7
04 16.06 Ю 1
{3}
50 км 10/0
[]
+16.4 +12.4 77 +17 +18 1012.9 1006.6
05 16.06 ЮЗ 2
{2}
45 км 10/0
[]
+17.1 +12.2 73 +17 +19 1013.1 1006.9
06 16.06 В 2
{4}
40 км слаб. ливневой дождь 6/0
[]
+15.8 +14.0 89 +16 +19 1013.1 1006.9 +15.8 +22.9
07 16.06 В 2
{3}
50 км 9/0 2000 м
[]
+17.8 +14.3 80 +18 +22 1013.5 1007.3
08 16.06 Ю 4
{7}
45 км 10/10 1500 м
[]
+16.8 +12.6 76 +16 +16 1013.9 1007.7
09 16.06 Ю 3
{5}
40 км 8/8 1500 м
[]
+17.1 +13.0 77 +17 +19 1014.0 1007.8
10 16.06 Ю 3
{5}
35 км 9/9 600 м
[]
+17.1 +14.0 82 +17 +18 1014.2 1008.0
11 16.06 Ю 3
{7}
29 км 10/10 300 м
[]
+16.9 +14.2 84 +17 +17 1014.3 1008.1 0.1
12 16.06 Ю 4
{8}
2600 м слаб. ливневой дождь 8/0
[]
+15.4 +14.4 94 +14 +20 1014.7 1008.4 0.3
13 16.06 Ю 5
{7}
18 км 10/10 200 м
[]
+15.6 +14.0 90 +14 +14 1014.9 1008.6
14 16.06 Ю 6
{8}
25 км 10/10 300 м
[]
+15.8 +13.6 87 +14 +14 1015.2 1009.0
15 16.06 Ю 6
{9}
17 км 10/10 200 м
[]
+15.5 +13.7 89 +14 +14 1015.3 1009.0
16 16.06 Ю 5
{9}
30 км 10/10 1000 м
[]
+16.6 +12.8 78 +16 +16 1015.2 1009.0
17 16.06 Ю 5
{9}
30 км ясно +16.9 +11.4 70 +16 +18 1015.2 1008.9
18 16.06 Ю 6
{9}
27 км ясно +15.2 +11.8 80 +14 +14 1015.4 1009.1 +15.1 +18.3 0.3
19 16.06 Ю 5
{9}
19 км 1/0
[]
+14.7 +12.2 85 +13 +13 1015.3 1009.0
20 16.06 Ю 4
{8}
15 км 1/0
[]
+14.1 +12.0 87 +13 +13 1015.2 1008.9
21 16.06 Ю 5
{8}
13 км 3/0
[]
+13.4 +11.8 90 +11 +11 1015.3 1009.0
22 16.06 Ю 5
{8}
16 км ясно +13.3 +11.5 89 +11 +11 1015.4 1009.0
23 16.06 Ю 4
{6}
13 км ясно +12.9 +11.8 93 +11 +11 1015.4 1009.1
00 17.06 Ю 5
{9}
17 км ясно +13.1 +11.5 90 +11 +11 1015.3 1009.0
01 17.06 Ю 3
{6}
26 км ясно +12.6 +10.5 87 +11 +11 1015.2 1008.9
02 17.06 Ю 3
{5}
35 км ясно +11.7 +9.6 87 +10 +10 1015.4 1009.0
03 17.06 Ю 3
{6}
35 км ясно +12.1 +9.7 85 +10 +11 1015.5 1009.2
04 17.06 ЮЗ 4
{6}
40 км ясно +12.8 +9.4 80 +11 +11 1015.8 1009.4
05 17.06 ЮЗ 4
{6}
40 км ясно +13.8 +9.3 74 +12 +14 1016.0 1009.6
06 17.06 Ю 4
{6}
35 км ясно +15.2 +9.3 68 +14 +17 1016.2 1009.9 +11.4 +15.3
07 17.06 Ю 5
{7}
35 км ясно +16.2 +9.6 65 +15 +19 1016.3 1010.0
08 17.06 Ю 6
{9}
26 км ясно +16.9 +10.1 64 +16 +20 1016.7 1010.4
09 17.06 Ю 8
{12}
40 км ясно +16.4 +9.6 64 +15 +17 1017.1 1010.8
10 17.06 Ю 8
{12}
30 км ясно +16.5 +9.9 65 +15 +18 1017.4 1011.1
11 17.06 Ю 9
{13}
27 км ясно +15.9 +10.5 70 +14 +16 1017.5 1011.2
12 17.06 Ю 9
{14}
25 км н/о +16.5 +12.5 77 +15 +15 1017.4 1011.2
13 17.06 Ю 9
{14}
28 км н/о +16.6 +12.8 78 +15 +15 1017.5 1011.2
14 17.06 Ю 9
{14}
24 км н/о +16.8 +12.6 76 +15 +15 1017.5 1011.2
15 17.06 Ю 7
{13}
29 км н/о +17.4 +13.1 76 +16 +16 1017.1 1010.8
16 17.06 Ю 8
{12}
20 км н/о +15.1 +12.4 84 +13 +13 1017.1 1010.8
17 17.06 Ю 6
{11}
17 км н/о +14.7 +12.4 86 +13 +13 1016.9 1010.5
18 17.06 Ю 6
{14}
17 км н/о +14.7 +11.8 83 +13 +13 1016.7 1010.4 +14.5 +17.5
19 17.06 Ю 7
{12}
16 км н/о +14.3 +11.8 85 +12 +12 1016.6 1010.2
20 17.06 Ю 6
{11}
15 км н/о +14.2 +11.9 86 +12 +12 1016.8 1010.5
21 17.06 Ю 5
{9}
14 км н/о +13.8 +12.0 89 +12 +12 1017.0 1010.6
22 17.06 Ю 3
{9}
14 км н/о +13.4 +11.5 88 +12 +12 1017.2 1010.9
23 17.06 Ю 3
{6}
17 км н/о +13.1 +10.8 86 +12 +12 1016.9 1010.5
00 18.06 Ю 4
{12}
13 км н/о +13.2 +11.8 91 +11 +11 1016.8 1010.5
01 18.06 Ю 5
{7}
17 км н/о +12.9 +11.3 90 +11 +11 1016.6 1010.2
02 18.06 Ю 4
{8}
15 км н/о +12.8 +11.2 90 +11 +11 1016.5 1010.1
03 18.06 Ю 4
{7}
14 км н/о +13.2 +11.6 90 +11 +11 1016.4 1010.0
04 18.06 Ю 5
{8}
15 км н/о +13.7 +11.8 88 +12 +12 1016.2 1009.9
05 18.06 Ю 5
{7}
16 км н/о +14.1 +12.2 88 +12 +12 1016.0 1009.7
06 18.06 Ю 3
{8}
19 км н/о +14.1 +12.1 88 +13 +13 1015.7 1009.4 +12.8 +14.9
07 18.06 ЮВ 2
{5}
26 км н/о +15.0 +12.3 84 +15 +15 1015.2 1008.9
08 18.06
{6}
24 км 10/10 200 м
[]
+15.5 +13.4 87 1014.9 1008.6
09 18.06 Ю 5
{9}
24 км 10/10 300 м
[]
+15.7 +13.4 86 +14 +14 1014.9 1008.6
10 18.06 Ю 6
{9}
29 км 10/10 300 м
[]
+15.9 +13.4 85 +15 +15 1014.6 1008.4
11 18.06 Ю 7
{11}
25 км 8/0
[]
+17.3 +13.8 80 +16 +19 1014.2 1008.0
12 18.06 Ю 5
{11}
17 км 10/10 300 м
[]
+17.5 +13.8 79 +17 +17 1014.2 1008.0
13 18.06 ЮЗ 6
{10}
17 км 10/10 300 м
[]
+18.0 +14.3 79 +17 +17 1014.0 1007.8
14 18.06 Ю 6
{9}
24 км 4/0
[]
+18.0 +12.9 72 +17 +21 1013.4 1007.2
15 18.06 Ю 6
{10}
29 км 3/0
[]
+16.8 +12.4 75 +16 +18 1013.2 1007.0 0.1
16 18.06 Ю 6
{10}
30 км ясно +16.9 +11.4 70 +16 +18 1012.7 1006.4
17 18.06 Ю 6
{9}
35 км ясно +16.9 +11.4 70 +16 +17 1012.3 1006.1
18 18.06 Ю 6
{10}
35 км ясно +16.7 +11.8 73 +16 +16 1011.9 1005.7 +14.1 +18.4
19 18.06 Ю 5
{10}
30 км 6/0
[]
+16.1 +12.3 78 +15 +15 1011.9 1005.6
20 18.06 Ю 4
{8}
30 км ясно +14.9 +12.2 84 +14 +14 1011.9 1005.6
21 18.06 Ю 3
{6}
23 км 1/0
[]
+13.9 +11.6 86 +13 +13 1012.1 1005.8
22 18.06 Ю 3
{5}
16 км ясно +13.5 +11.9 90 +12 +12 1012.0 1005.7
23 18.06 Ю 3
{5}
12 км 1/0
[]
+13.4 +12.3 93 +12 +12 1012.0 1005.6
00 19.06 Ю 3
{10}
8000 м ясно +13.1 +12.2 94 +12 +12 1012.0 1005.7
01 19.06 Ю 3
{6}
8000 м ясно +12.8 +12.0 95 +11 +11 1011.8 1005.5
02 19.06 Ю 4
{4}
4300 м дымка 6/0
[]
+13.3 +12.5 95 +12 +12 1011.6 1005.3
03 19.06 ЮЗ 2
{5}
5000 м 6/0
[]
+13.2 +12.6 96 +12 +12 1011.5 1005.2

 

Местоположение метеостанции Рюгге (Норвегия): широта 59.38 долгота 10.80 высота над уровнем моря 40 м.

В архиве по умолчанию представлена погода в Рюгге за последнюю неделю. Архивные данные за месяц целиком и за предыдущие месяцы, начиная с января 2011 года, Вы можете получить, выбрав интересующий диапазон дат из раскрывающегося списка и нажав кнопку "Ввод!".


*Определитесь, кто Вы:
робот инопланетянин человек

Внимание! Время в таблицах - всемирное. Для получения местного времени необходимо прибавить поправку, которая равна 1 ч.

Смотрите также архив погоды в соседних городах и на ближайших метеорологических станциях:

Погода на Гуллхолмене (Норвегия) (14 км)
Погода в Сарпсборге (Норвегия) (21 км)
Погода на Маяке Stromtangen (Норвегия) (26 км)
Погода в Мелсоме (Норвегия) (31 км)
Погода в Асе (Норвегия) (31 км)
Погода на Маяке Ferder (Норвегия) (42 км)
Погода в Санде-Галлеберге (Норвегия) (42 км)
Погода в Коннеруде (Норвегия) (52 км)
Погода в Нордкостере (Швеция) (55 км)
Погода в Драммен Берског (Норвегия) (56 км)

Пояснения к столбцам:

Ветер - указаны скорость ветра в м/с - средняя за 10 мин, порывы в срок и между сроками (в фигурных скобках) и направление, откуда дует ветер: С - северный, СВ - северо-восточный, В - восточный, ЮВ - юго-восточный, Ю - южный, ЮЗ - юго-западный, З - западный, СЗ - северо-западный.
Видимость - горизонтальная дальность видимости в метрах или километрах. При видимости от 1 до 10 км при отсутствии осадков обычно наблюдается дымка, при ухудшении видимости до 1 км и менее - туман. В сухую погоду видимость может ухудшаться дымом, пылью или мглою.
Явления - указаны атмосферные явления, наблюдавшиеся в срок или в последний час перед сроком; фигурными скобками обозначены явления, наблюдавшиеся между сроками (за 1-3 часа до срока); квадратными скобками обозначены град или гололедные отложения с указанием их диаметра в мм.
Облачность - указаны через наклонную черту общая и нижняя облачность в баллах и высота нижней границы облаков в метрах; квадратными скобками обозначены формы облаков: Ci - перистые, Cs - перисто-слоистые, Cc - перисто-кучевые, Ac - высококучевые, As - высокослоистые, Sc - слоисто-кучевые, Ns - слоисто-дождевые, Cu - кучевые, Cb - кучево-дождевые. Подробнее классификацию облаков см. в Атласе облаков (PDF).
T - Температура воздуха - температура, измеренная на высоте 2 м над землей.
Td - Температура точки росы - температура, при понижении до которой содержащийся в воздухе водяной пар достигнет насыщения.
f - Относительная влажность воздуха - влажноcть воздуха, измеренная на высоте 2 м над землей.
Te - Эффективная температура - температура, которую ощущает одетый по сезону человек в тени. Характеристика душности погоды. При расчете учитывается влияние влажности воздуха и скорости ветра на теплоощущения человека.
Tes - Эффективная температура на солнце - температура, которую ощущает человек, с поправкой на солнечный нагрев. Характеристика знойности погоды. Зависит от высоты солнца над горизонтом, облачности и скорости ветра. Ночью, в пасмурную погоду, а также при ветре 12 м/с и более поправка равна нулю.
P - Атмосферное давление - приведенное к уровню моря атмосферное давление.
Po - Атмосферное давление - измеренное на уровне метеостанции атмосферное давление.
Tmin - Минимальная температура - минимум температуры воздуха на высоте 2 м над землей.
Tmax - Максимальная температура - максимум температуры воздуха на высоте 2 м над землей.
R - Количество осадков - Количество выпавших осадков за период времени, мм. При наведении курсора мыши на число - период времени, за который выпало указанное количество осадков.
R24 - Количество осадков - Количество выпавших осадков за 24 часа, мм.
S - Снежный покров - Высота снежного покрова, см. При наведении курсора мыши на число - состояние снежного покрова и степень покрытия местности в баллах.